DW0207 Weather Reports


Display with metric or nautical units.
time (UTC)temp
F
wind
direction
speed
MPH
gust
MPH
rain 1hr
in
rain 24hr
in
rain mn
in
humidity
%
barometer
mb
20180924204516 77 275 7.0 13.0 0.00 0.00 0.00 24 1025.0
20180924144510 58 232 0.0 2.0 0.00 0.00 0.00 36 1029.1
20180924121534 47 232 0.0 0.0 0.00 0.00 0.00 47 1028.3
20180924120001 48 232 0.0 0.0 0.00 0.00 0.00 44 1028.3
20180924114620 49 232 0.0 0.0 0.00 0.00 0.00 44 1028.1
20180924113102 50 232 0.0 2.0 0.00 0.00 0.00 44 1028.0
20180924111641 49 232 0.0 0.0 0.00 0.00 0.00 44 1028.0
20180924110140 49 232 0.0 0.0 0.00 0.00 0.00 44 1028.0
20180924104637 48 232 0.0 0.0 0.00 0.00 0.00 45 1028.0
20180924103115 48 232 0.0 0.0 0.00 0.00 0.00 44 1028.1
20180924101616 49 232 0.0 0.0 0.00 0.00 0.00 43 1028.0
20180924100107 49 232 0.0 2.0 0.00 0.00 0.00 43 1028.0
20180924094633 50 232 0.0 4.0 0.00 0.00 0.00 42 1028.1
20180924093118 50 232 0.0 6.0 0.00 0.00 0.00 41 1028.2
20180924091603 50 232 1.0 4.0 0.00 0.00 0.00 42 1028.3
20180924090124 49 232 0.0 2.0 0.00 0.00 0.00 42 1028.5
20180924084611 50 232 1.0 3.0 0.00 0.00 0.00 41 1028.4
20180924083042 51 232 1.0 3.0 0.00 0.00 0.00 40 1028.3
20180924081648 51 232 0.0 1.0 0.00 0.00 0.00 39 1028.3
20180924080100 52 232 0.0 0.0 0.00 0.00 0.00 38 1028.3
20180924074543 54 232 0.0 0.0 0.00 0.00 0.00 35 1028.2
20180924073041 55 232 0.0 3.0 0.00 0.00 0.00 35 1028.1
20180924071603 54 232 1.0 4.0 0.00 0.00 0.00 35 1028.1
20180924070030 54 232 0.0 0.0 0.00 0.00 0.00 34 1028.2
20180924064542 56 232 0.0 0.0 0.00 0.00 0.00 33 1028.2
20180924063026 57 232 0.0 5.0 0.00 0.00 0.00 33 1028.1
20180924061603 57 232 0.0 5.0 0.00 0.00 0.00 34 1028.1
20180924060031 57 232 0.0 3.0 0.00 0.00 0.00 33 1028.1
20180924054557 58 232 0.0 4.0 0.00 0.00 0.00 33 1028.1
20180924053019 59 232 2.0 5.0 0.00 0.00 0.00 33 1028.1
20180924050034 60 232 0.0 6.0 0.00 0.00 0.00 33 1027.9
20180924044526 60 232 2.0 6.0 0.00 0.00 0.00 34 1027.7
20180924043014 60 232 0.0 2.0 0.00 0.00 0.00 34 1027.8
20180924041514 61 232 0.0 1.0 0.00 0.00 0.00 33 1027.7
20180924040019 63 232 2.0 8.0 0.00 0.00 0.00 32 1027.5
20180924034513 62 235 3.0 9.0 0.00 0.00 0.00 33 1027.5
20180924033015 62 238 2.0 8.0 0.00 0.00 0.00 34 1027.5
20180924031528 62 238 0.0 5.0 0.00 0.00 0.00 33 1027.5
20180924030021 64 237 0.0 2.0 0.00 0.00 0.00 32 1027.5
20180924024525 64 238 1.0 12.0 0.00 0.00 0.00 32 1027.1
20180924023013 64 242 4.0 10.0 0.00 0.00 0.00 32 1027.0
20180924003026 73 244 2.0 11.0 0.00 0.00 0.00 25 1026.4
20180924001518 74 244 3.0 9.0 0.00 0.00 0.00 24 1026.4